[[{"header":{"parameterUnit":"m.s-1","parameterCategory":1,"la1":30.2991,"la2":30.254,"lo1":-89.0895,"lo2":-89.0444,"dy":0.0017,"dx":0.0017,"nx":28,"ny":28,"refTime":"2025-07-21T09:00:00:Z","depth":0,"parameterNumber":2,"parameterNumberName":"U-component_of_WINDS"},"data":[0,0,0,0,0,0,0,0,0,0,0,0,0,0,0,0,0,0,0,0,0,0,0,0,0,0,0,0,0,0,0,0,0,0,0,0,0,0,0,0,0,0,0,0,0,0,0,0,0,0,0,0,0,0,0,0,0,0,3.3033,3.3034,0,3.3115,3.3116,3.3117,3.3035,3.3032,3.3029,3.3026,3.3112,3.3117,3.3122,0,0,0,0,0,0,0,0,0,0,0,0,0,3.2804,3.2809,3.3033,3.3034,3.3035,3.3115,3.3116,3.3117,3.3036,3.3032,3.3028,3.3024,3.311,3.3116,3.3123,0,0,0,0,0,0,0,0,0,0,0,0,0,3.2897,3.281,3.3032,3.3004,3.3002,3.3115,3.3116,3.3118,3.3037,3.3032,3.3027,3.3022,3.3108,3.3116,3.3124,3.327,0,0,3.3148,3.3151,0,0,0,0,0,0,0,0,3.2891,3.2905,3.3007,3.3006,3.3004,3.306,3.3067,3.3169,3.3038,3.3023,3.3026,3.302,3.3099,3.3107,3.3133,3.3274,3.3277,3.3149,3.3153,3.3157,3.3159,0,0,0,0,0,0,0,3.2885,3.2901,3.3065,3.3008,3.3007,3.2986,3.2994,3.3086,3.3087,3.3024,3.3019,3.3029,3.3097,3.3126,3.3135,3.3278,3.3148,3.3155,3.316,3.3163,3.3539,3.3544,0,0,0,0,0,0,3.2882,3.2896,3.3063,3.3068,3.2935,3.2994,3.3003,3.3047,3.3086,3.3087,3.3033,3.3025,3.3114,3.3125,3.3137,3.3308,3.3157,3.3164,3.3169,3.3534,3.354,3.3546,0,0,0,0,0,0,3.2877,3.2897,3.3059,3.298,3.2999,3.3003,3.3053,3.3051,3.308,3.3093,3.3093,3.3063,3.3111,3.3126,3.3236,3.331,3.3168,3.3175,3.3528,3.3536,3.3543,3.3652,0,0,0,0,0,0,3.2871,3.2896,3.2952,3.2982,3.3004,3.3157,3.3058,3.3056,3.3093,3.3083,3.312,3.3122,3.3108,3.3225,3.3244,3.3318,3.3181,3.3521,3.3531,3.354,3.3641,3.3662,3.368,0,0,0,0,0,3.2863,3.298,3.2955,3.2976,3.3074,3.3162,3.3174,3.3156,3.31,3.3155,3.3163,3.312,3.3299,3.3237,3.3258,3.3335,3.3516,3.3528,3.354,3.3633,3.3658,3.3679,0,0,0,0,0,0,3.296,3.2984,3.2956,3.3087,3.3123,3.3148,3.3217,3.3184,3.3237,3.3226,3.3202,3.3211,3.3327,3.3342,3.3273,3.3477,3.3398,3.3415,3.3462,3.3486,3.3505,3.3498,3.3188,0,0,0,0,0,3.2996,3.3065,3.3083,3.3197,3.3216,3.3214,3.3252,3.3234,3.3271,3.3286,3.3302,3.3339,3.3403,3.3446,3.3506,3.3644,3.3649,3.3707,3.3727,3.3742,3.3756,3.3827,3.3852,3.3584,3.3584,3.3584,0,0,3.3072,3.3094,3.3139,3.3216,3.3242,3.3313,3.3227,3.3307,3.336,3.3298,3.3402,3.3415,3.3455,3.3579,3.3634,3.3595,3.3831,3.3757,3.377,3.3775,3.3842,3.3867,3.3889,3.3592,3.3591,3.3589,0,0,3.3246,3.3271,3.3367,3.3394,3.3433,3.3431,3.3454,3.3484,3.349,3.3593,3.3548,3.361,3.3722,3.3751,3.378,3.3964,3.3925,3.3984,3.4084,3.4153,3.4174,3.4193,3.4255,3.4278,3.3999,3.3999,3.3999,0,3.3336,3.3442,3.342,3.3503,3.3537,3.3483,3.3579,3.3607,3.3664,3.3689,3.3645,3.3781,3.3805,3.3933,3.3977,3.4004,3.4028,3.3979,3.4173,3.4191,3.4208,3.4268,3.4291,3.4005,3.4005,3.4004,3.4003,0,3.3548,3.3622,3.3695,3.375,3.3792,3.3882,3.3873,3.3918,3.3898,3.39,3.4005,3.4031,3.4093,3.4123,3.4104,3.4248,3.4222,3.4177,3.4097,3.4241,3.4296,3.4319,3.4015,3.4013,3.4011,3.4009,0,0,3.3785,3.3826,3.3853,3.3875,3.3914,3.3971,3.4057,3.4117,3.4156,3.4198,3.4267,3.4362,3.4319,3.4352,3.4336,3.4398,3.4537,3.4344,3.4344,3.4376,3.4694,3.4726,3.4753,3.4513,3.4517,3.4521,3.4689,0,3.3958,3.4106,3.4088,3.4229,3.4296,3.4245,3.432,3.4352,3.4356,3.4413,3.4417,3.4483,3.4423,3.4442,3.4501,3.4508,3.46,3.4496,3.4576,3.4579,3.4565,3.4782,3.4817,3.4975,3.4711,3.4715,3.4718,0,3.4179,3.4226,3.4374,3.44,3.4427,3.4494,3.4546,3.4602,3.4637,3.4635,3.4672,3.4644,3.4729,3.465,3.4765,3.4694,3.4726,3.4735,3.474,3.4745,3.4655,3.479,3.5026,3.5048,3.4752,3.4749,3.4747,0,3.4333,3.4434,3.4534,3.4556,3.459,3.4638,3.4654,3.4684,3.472,3.4766,3.4789,3.4846,3.4876,3.492,3.4908,3.4851,3.5025,3.4945,3.5024,3.5025,3.5061,3.5059,3.5303,3.5087,3.5087,3.5086,3.5086,0,3.4526,3.4618,3.4603,3.4665,3.4765,3.4744,3.4844,3.4854,3.4881,3.4942,3.4904,3.4963,3.4944,3.5002,3.4994,3.5089,3.5104,3.5104,3.51,3.5106,3.5105,3.5124,3.5112,3.5093,3.5091,3.509,3.5089,0,3.4714,3.4709,3.4814,3.4837,3.4845,3.4918,3.4937,3.4994,3.4995,3.5073,3.5091,3.5092,3.5157,3.515,3.5225,3.5219,3.5336,3.5321,3.5324,3.5319,3.5398,3.5389,3.566,3.5694,3.5459,3.5462,3.5464,0,3.4837,3.4905,3.4935,3.4973,3.4992,3.5055,3.5091,3.5073,3.5112,3.5155,3.5207,3.5269,3.5317,3.5425,3.5432,3.5488,3.5472,3.5563,3.548,3.5483,3.5469,3.5464,3.547,3.5578,3.5581,3.5583,3.5585,0,3.5053,3.5046,3.51,3.5152,3.5196,3.5237,3.5274,3.5308,3.5293,3.5339,3.5405,3.5443,3.5517,3.5578,3.5631,3.5647,3.5613,3.5611,3.5632,3.5637,3.5635,3.5634,3.5365,3.5605,3.5603,3.5601,3.56,3.5599,3.521,3.5267,3.5296,3.5356,3.5382,3.5416,3.547,3.5477,3.5532,3.559,3.5576,3.565,3.5681,3.5747,3.5769,3.5826,3.5793,3.5824,3.5831,3.5839,3.5846,3.5628,3.5836,3.5836,3.5835,3.5835,3.5834,0,3.5421,3.5437,3.5493,3.5544,3.5591,3.5555,3.5593,3.5635,3.57,3.5731,3.5779,3.5854,3.5913,3.5924,3.598,3.6024,3.6009,3.6039,3.6034,3.6037,3.5874,3.5849,3.6049,3.6049,3.6049,3.6049,3.6049,3.6049,3.5536,3.563,3.5627,3.5733,3.5748,3.5819,3.5844,3.5875,3.5899,3.5984,3.6032,3.6039,3.6062,3.6119,3.6171,3.6172,3.6193,3.6228,3.6224,3.6071,3.6049,3.6029,3.6005,3.6234,3.6234,3.6382,3.6383,3.6384]},{"header":{"parameterUnit":"m.s-1","parameterCategory":1,"la1":30.2991,"la2":30.254,"lo1":-89.0895,"lo2":-89.0444,"dy":0.0017,"dx":0.0017,"nx":28,"ny":28,"refTime":"2025-07-21T09:00:00:Z","depth":0,"parameterNumber":3,"parameterNumberName":"V-component_of_WINDS"},"data":[0,0,0,0,0,0,0,0,0,0,0,0,0,0,0,0,0,0,0,0,0,0,0,0,0,0,0,0,0,0,0,0,0,0,0,0,0,0,0,0,0,0,0,0,0,0,0,0,0,0,0,0,0,0,0,0,0,0,2.8294,2.8295,0,2.8412,2.8413,2.8414,2.8386,2.8383,2.8381,2.8379,2.8497,2.8502,2.8507,0,0,0,0,0,0,0,0,0,0,0,0,0,2.8041,2.8046,2.8294,2.8295,2.8297,2.8412,2.8413,2.8415,2.8386,2.8383,2.8381,2.8378,2.8495,2.8501,2.8508,0,0,0,0,0,0,0,0,0,0,0,0,0,2.8154,2.8047,2.8294,2.8296,2.8298,2.8411,2.8413,2.8415,2.8387,2.8383,2.838,2.8377,2.8493,2.8501,2.8509,2.8626,0,0,2.8533,2.8536,0,0,0,0,0,0,0,0,2.8147,2.8163,2.8295,2.8297,2.8298,2.8381,2.8367,2.8486,2.8388,2.8353,2.8379,2.8375,2.8461,2.8471,2.8501,2.8631,2.8636,2.8533,2.8538,2.8542,2.8544,0,0,0,0,0,0,0,2.814,2.8158,2.834,2.8297,2.8299,2.8291,2.8303,2.8389,2.8424,2.8356,2.8354,2.8368,2.8461,2.8493,2.8503,2.8638,2.8533,2.854,2.8545,2.8548,2.8868,2.8872,0,0,0,0,0,0,2.8131,2.8152,2.8337,2.8344,2.8213,2.8298,2.8312,2.8358,2.8423,2.843,2.8371,2.8367,2.8481,2.8494,2.8507,2.8647,2.8542,2.8549,2.8553,2.8864,2.8869,2.8873,0,0,0,0,0,0,2.8125,2.8148,2.8332,2.8247,2.827,2.8306,2.8358,2.8362,2.8394,2.8435,2.8441,2.8398,2.8479,2.8496,2.8596,2.8651,2.8553,2.856,2.886,2.8866,2.8871,2.8929,0,0,0,0,0,0,2.8118,2.8146,2.8192,2.8249,2.8275,2.842,2.8361,2.8366,2.8408,2.8403,2.8462,2.8468,2.8478,2.8585,2.8604,2.866,2.8566,2.8855,2.8862,2.8869,2.8923,2.8936,2.8948,0,0,0,0,0,2.8109,2.8203,2.8194,2.8217,2.8333,2.8424,2.8438,2.8449,2.8412,2.8458,2.8484,2.8466,2.8642,2.8595,2.8617,2.8676,2.8852,2.886,2.8869,2.8917,2.8934,2.8948,0,0,0,0,0,0,2.8152,2.8211,2.8201,2.8317,2.8365,2.8419,2.8477,2.8466,2.8525,2.8518,2.8527,2.8541,2.8643,2.8669,2.8616,2.8792,2.8741,2.8754,2.8771,2.8787,2.8799,2.8791,2.8572,0,0,0,0,0,2.8174,2.8244,2.8291,2.8389,2.8414,2.8441,2.8481,2.8484,2.8535,2.8555,2.8588,2.8637,2.8703,2.8746,2.881,2.8926,2.8938,2.8977,2.899,2.9,2.9012,2.9074,2.9091,2.8901,2.8901,2.89,0,0,2.8222,2.8263,2.8306,2.8398,2.8436,2.8507,2.8458,2.8536,2.8587,2.8566,2.8663,2.8689,2.8744,2.8852,2.8901,2.8877,2.9067,2.9011,2.9019,2.9025,2.9084,2.9102,2.9118,2.8906,2.8905,2.8904,0,0,2.8345,2.8384,2.8468,2.8507,2.8565,2.8583,2.8603,2.8658,2.8674,2.8771,2.8756,2.8817,2.8931,2.8971,2.9005,2.9141,2.9126,2.9161,2.9227,2.9288,2.9303,2.9316,2.9363,2.9381,2.9172,2.9173,2.9173,0,2.8397,2.8504,2.8513,2.8591,2.8631,2.8615,2.87,2.8737,2.8813,2.884,2.8812,2.8954,2.8989,2.9106,2.9139,2.9168,2.919,2.9155,2.93,2.9314,2.9326,2.9371,2.9389,2.9176,2.9176,2.9176,2.9175,0,2.8564,2.8638,2.8699,2.8773,2.8819,2.8901,2.8921,2.8967,2.8965,2.8985,2.9083,2.9125,2.9196,2.9224,2.9224,2.934,2.9323,2.9298,2.9247,2.9348,2.9391,2.9408,2.9182,2.918,2.9179,2.9178,0,0,2.8718,2.8794,2.8817,2.8849,2.8911,2.8968,2.9048,2.9117,2.9156,2.9208,2.9274,2.937,2.9346,2.9386,2.9389,2.9442,2.9546,2.941,2.9411,2.9433,2.9675,2.9694,2.9714,2.9536,2.9539,2.9542,2.967,0,2.8846,2.8987,2.8996,2.9123,2.9191,2.9176,2.9245,2.9289,2.931,2.9369,2.939,2.9458,2.9422,2.9446,2.9497,2.9522,2.9594,2.9513,2.9596,2.9599,2.9583,2.9736,2.9757,2.9876,2.9687,2.969,2.9692,0,2.9014,2.9072,2.9205,2.9257,2.9285,2.9347,2.9411,2.9468,2.9518,2.9528,2.9572,2.9568,2.9647,2.9594,2.9703,2.9648,2.9682,2.9699,2.9704,2.9712,2.9652,2.9748,2.9914,2.9932,2.9719,2.9716,2.9714,0,2.9112,2.9222,2.9316,2.9345,2.9407,2.9451,2.9479,2.9525,2.9566,2.9621,2.9647,2.9711,2.9745,2.9794,2.9806,2.9766,2.9915,2.9863,2.9925,2.9925,2.9957,2.9955,3.0131,2.998,2.9979,2.9979,2.9979,0,2.9254,2.9336,2.9361,2.9419,2.951,2.9519,2.9609,2.9633,2.9675,2.9736,2.9726,2.9784,2.9797,2.9856,2.9866,2.9954,2.997,2.998,2.9981,2.9981,2.9979,3.0003,2.9995,2.9984,2.9983,2.9982,2.9981,0,2.9378,2.9399,2.95,2.9551,2.9565,2.963,2.9672,2.9727,2.9745,2.9823,2.9841,2.987,2.9939,2.9956,3.0039,3.0045,3.0149,3.0143,3.0133,3.0132,3.0193,3.0187,3.0391,3.0417,3.0249,3.0251,3.0252,0,2.9467,2.953,2.9587,2.9628,2.9658,2.9723,2.9765,2.9776,2.9819,2.9879,2.9926,2.9995,3.005,3.0161,3.0188,3.0251,3.0246,3.0313,3.0255,3.0252,3.0246,3.0242,3.0248,3.0324,3.0326,3.0327,3.0328,0,2.9623,2.9629,2.969,2.9754,2.9804,2.9854,2.9902,2.9936,2.9953,3.0002,3.0073,3.0116,3.02,3.0268,3.033,3.0357,3.0346,3.0346,3.0364,3.0363,3.0355,3.0359,3.0162,3.0341,3.034,3.0339,3.0338,3.0338,2.9732,2.9787,2.9835,2.9902,2.994,2.9985,3.0038,3.0063,3.0123,3.0193,3.0195,3.0272,3.0318,3.0401,3.0432,3.0491,3.0471,3.0496,3.0503,3.0509,3.0514,3.0345,3.0503,3.0502,3.0502,3.0502,3.0501,0,2.9886,2.9916,2.9978,3.0046,3.0098,3.0083,3.0135,3.018,3.0248,3.0293,3.0347,3.0428,3.0493,3.0525,3.0589,3.063,3.0626,3.0646,3.0643,3.0649,3.0529,3.0507,3.0648,3.0648,3.0648,3.0648,3.0648,3.0648,2.9973,3.0064,3.0076,3.0185,3.0214,3.029,3.0321,3.0362,3.0397,3.0488,3.0542,3.0563,3.0602,3.0668,3.0727,3.0734,3.0758,3.0781,3.0785,3.0673,3.0658,3.0644,3.0623,3.0786,3.0786,3.0901,3.0902,3.0902]}]]